Volver al catálogo

STARLINK-37277

ActivoComunicacionesSSO
NORAD 68751·PAYLOAD·🇺🇸 United States

Lanzado Apr 15, 2026 desde Vandenberg Space Force Base

Loading…

Próximos Pases (próximas 24 horas)

TLE

ActualizadoSource: CelesTrak SupGP

Época: Sep 14, 2026, 23:28 UTC

1 68751C 26082Z   26257.97826389  .00080527  00000+0  25001-2 0  2577
2 68751  97.2845 120.2379 0001970  94.8154 178.4125 15.33392410    16

Sigue STARLINK-37277 en tiempo real con AllMySat

Download on the App Store